Temp
19 20 22 24 22 22 21 21 22 23 22 19 21 21 22 21 19 18 17 15 14 12 11 10 9 9 9 9 8 7 6 4 5 7 8 9 10 11 11 10 9 9 9 9
18 19 23 20 19 19 20 20 21 22 20 19 21 21 20 18 15 14 14 13 12 11 11 10 10 9 8 8 7 6 5 4 4 5 5 7 8 10 10 9 9 8 8 8
21 21 19 19 19 19 20 19 20 19 20 20 19 21 18 17 14 13 12 12 11 10 10 10 9 9 9 8 8 7 6 4 3 4 5 6 8 9 9 8 8 7 7 6
20 21 19 19 19 19 20 20 19 18 18 20 19 20 20 19 16 15 13 12 11 10 10 9 9 8 7 6 6 6 5 5 4 4 4 5 8 9 7 7 6 6 5 4
20 18 18 19 19 19 19 18 18 18 18 18 20 18 22 19 18 16 14 11 10 9 8 8 6 5 4 4 3 3 4 4 3 4 2 4 4 5 6 6 5 4 4 4
20 18 19 20 18 18 18 17 18 17 18 17 20 19 23 19 19 17 14 12 11 8 8 6 5 5 5 5 5 4 4 3 3 2 2 2 2 2 3 3 3 3 3 3
18 17 18 18 18 17 18 18 18 18 18 19 18 18 21 19 17 16 14 13 10 8 6 6 6 6 5 5 4 4 4 4 3 2 1 1 1 2 2 1 1 1 1 1
17 17 18 18 19 19 18 19 19 17 19 20 17 17 19 17 15 14 14 12 9 7 5 6 5 5 4 4 3 2 3 3 2 2 1 1 1 1 1 -0 -0 -0 0 0
18 18 18 17 18 19 17 16 19 18 18 16 19 21 14 13 11 12 12 10 8 6 7 5 5 4 3 3 1 1 1 2 1 1 0 0 -0 -0 -0 -0 -1 -1 -1 -1
18 18 18 16 17 18 17 19 15 16 15 16 20 20 19 12 10 11 11 9 7 6 6 6 6 5 3 2 1 1 0 0 0 -0 -0 -0 -1 -1 -1 -1 -1 -1 -1 -2
19 18 17 16 17 18 16 16 16 17 17 17 18 19 16 14 14 12 12 10 7 7 7 7 6 5 3 2 1 0 -0 -0 -1 -1 -1 -1 -1 -1 -1 -2 -2 -2 -2 -2
17 17 17 17 19 19 20 18 18 15 15 15 15 17 18 17 17 15 14 10 7 8 7 7 6 5 3 2 1 1 -0 -0 -1 -1 -1 -1 -2 -1 -1 -2 -2 -2 -2 -2
16 15 15 17 16 17 17 18 18 17 16 14 14 17 16 16 16 15 13 8 8 7 7 7 6 4 3 1 1 0 -0 -1 -1 -1 -1 -1 -1 -1 -2 -2 -2 -3 -2 -2
14 16 15 16 16 15 12 14 16 15 13 15 16 18 19 16 15 13 10 8 7 7 7 7 6 3 2 1 0 0 -0 -0 -0 -1 -1 -1 -2 -2 -2 -2 -2 -2 -2 -2
14 14 15 16 17 16 15 15 16 16 15 14 16 17 19 19 17 14 11 9 7 7 7 6 5 2 1 0 0 0 -0 -0 -1 -1 -2 -2 -2 -2 -3 -3 -3 -3 -3 -3
14 13 14 14 16 16 15 16 17 17 17 17 17 17 18 19 17 14 11 8 7 6 6 5 4 2 1 0 0 -0 -0 -0 -1 -2 -2 -3 -3 -3 -4 -3 -3 -3 -3 -4
12 12 12 12 15 14 12 15 16 17 17 17 16 18 19 17 15 12 10 9 7 6 4 4 2 1 0 -0 -0 -0 -0 -1 -1 -2 -3 -3 -4 -5 -5 -5 -5 -5 -5 -5
12 11 12 12 12 11 16 17 16 17 17 17 17 17 17 16 15 13 11 9 7 5 4 3 1 0 -1 -1 -1 -1 -1 -1 -2 -3 -4 -4 -5 -5 -6 -6 -6 -6 -6 -6
12 12 10 10 12 14 16 15 12 12 14 16 15 16 16 12 9 7 8 7 5 4 1 0 -0 -1 -2 -2 -2 -2 -2 -2 -3 -4 -5 -6 -6 -7 -6 -6 -6 -6 -6 -6
12 12 11 11 11 11 14 17 14 13 12 16 15 15 9 7 8 8 5 4 2 -0 -1 -2 -2 -3 -3 -3 -2 -2 -3 -3 -5 -5 -5 -5 -6 -7 -7 -6 -6 -7 -7 -7
9 9 8 10 10 12 14 13 13 11 13 12 13 12 9 7 7 4 2 0 -1 -1 -1 -2 -3 -4 -4 -4 -4 -4 -4 -4 -4 -5 -6 -6 -6 -7 -7 -7 -7 -7 -7 -7
12 11 10 9 9 10 11 11 11 10 8 10 9 9 6 3 2 0 -0 -1 -2 -2 -3 -3 -3 -3 -2 -2 -3 -4 -5 -5 -5 -5 -6 -7 -7 -6 -7 -7 -6 -7 -7 -7
10 11 12 11 12 10 12 10 7 8 9 8 7 6 4 1 -0 -1 -1 -2 -2 -3 -2 -2 -2 -2 -1 -1 -1 -2 -3 -4 -5 -5 -6 -7 -7 -7 -6 -6 -6 -6 -6 -6
12 11 11 9 12 10 9 8 8 8 8 7 7 5 3 0 -1 -1 -2 -2 -2 -3 -1 -1 -1 -1 -2 -2 -2 -2 -3 -3 -3 -4 -4 -5 -6 -6 -6 -6 -6 -7 -7 -6
11 11 11 9 9 8 8 8 8 6 6 6 5 4 1 -0 -1 -1 -2 -2 -3 -2 -2 -1 -1 -1 -2 -3 -3 -3 -3 -3 -3 -4 -4 -5 -5 -6 -7 -8 -8 -7 -9 -9
10 9 10 11 12 12 10 9 7 5 5 4 4 2 2 1 -0 -1 -2 -2 -3 -3 -3 -2 -3 -3 -3 -3 -4 -4 -4 -4 -4 -4 -5 -6 -5 -6 -6 -6 -8 -11 -10 -10
Height
795 795 786 776 784 785 795 796 793 786 790 802 790 787 781 786 795 800 802 808 813 817 819 819 818 817 814 811 808 805 801 796 791 790 789 788 788 787 786 786 786 785 783 782
798 792 777 789 791 796 796 798 795 787 796 801 785 784 786 795 806 808 808 813 817 817 818 819 818 817 816 814 811 808 804 800 797 796 794 793 791 790 789 788 788 787 786 784
777 776 785 790 792 794 794 797 794 798 794 790 793 774 790 798 807 811 815 816 819 819 818 818 818 817 816 814 812 809 807 805 803 800 797 796 792 792 790 789 788 788 787 784
778 775 787 787 785 788 788 788 797 800 800 789 792 782 773 783 799 802 808 813 816 818 820 821 819 820 819 818 816 814 811 809 806 803 801 799 796 794 792 790 788 787 787 783
770 782 786 787 782 786 786 794 797 797 795 794 785 793 759 776 786 795 800 812 817 821 823 823 825 825 825 823 820 818 815 813 809 807 804 801 798 795 793 791 788 784 786 784
770 779 779 778 787 785 786 794 796 797 793 793 772 781 746 773 773 785 797 806 813 821 823 825 826 827 826 825 822 820 817 815 812 808 805 805 801 796 794 789 792 781 786 784
772 779 780 781 786 788 785 788 790 789 788 777 782 780 757 766 778 784 794 803 815 820 824 825 825 825 825 825 823 820 817 815 812 809 807 806 802 796 793 786 783 784 783 787
768 777 774 775 773 773 782 782 782 790 775 769 785 777 757 770 783 790 793 802 813 822 825 824 825 825 826 825 824 823 818 816 812 810 807 808 802 799 795 793 790 788 786 788
762 763 766 770 769 771 784 789 774 783 782 793 767 749 775 784 794 794 796 803 814 820 821 824 825 826 826 826 825 823 820 817 814 812 810 806 804 803 800 799 794 793 789 789
757 763 764 773 773 772 775 769 792 789 790 779 749 746 747 784 794 794 793 802 811 817 820 822 823 824 827 826 826 823 821 818 817 815 811 809 807 804 803 801 797 795 792 791
753 758 767 773 768 763 779 776 777 773 771 769 759 745 753 762 768 781 787 797 810 814 815 818 821 823 825 825 826 824 821 819 819 817 813 811 810 805 806 805 801 796 797 793
755 755 756 758 748 751 748 755 760 775 774 772 772 753 747 751 757 767 777 791 807 809 813 817 820 823 825 826 825 824 822 820 818 817 815 813 811 809 811 807 804 801 798 795
758 760 762 755 760 757 755 748 750 755 761 767 773 748 751 755 755 762 774 794 802 810 813 815 819 822 825 826 825 824 822 821 820 819 818 816 815 812 812 809 806 803 799 794
763 754 757 747 749 757 770 762 756 759 768 756 746 741 734 749 756 766 779 790 797 804 810 812 818 822 825 825 825 824 823 822 821 820 820 817 817 815 812 811 809 805 802 796
762 759 755 748 745 746 754 753 747 748 750 757 743 741 727 730 741 757 771 783 792 799 805 810 816 823 824 825 824 824 823 822 822 821 821 819 818 817 815 813 811 807 803 800
758 755 753 748 745 746 745 739 735 736 733 734 736 728 727 726 737 751 766 781 787 796 802 810 815 822 823 825 823 824 823 823 823 823 823 821 821 819 817 814 811 810 807 804
760 756 756 749 743 745 750 731 729 723 724 728 729 718 715 723 737 749 761 772 781 791 801 808 815 820 822 824 823 824 824 825 826 826 825 824 823 822 820 819 816 813 810 807
754 758 755 748 747 748 713 715 715 715 716 714 717 717 720 723 731 741 756 768 780 789 799 808 814 818 821 823 823 825 826 827 828 828 827 826 826 825 823 820 817 816 814 810
748 749 758 752 732 720 713 714 729 728 716 713 718 714 720 737 751 762 763 771 782 790 801 808 813 818 820 822 823 826 827 829 829 829 829 828 827 825 823 822 820 818 816 814
738 742 746 738 736 728 710 704 718 726 719 707 710 712 738 752 749 747 769 777 787 795 803 808 814 817 820 822 824 826 829 830 831 831 830 830 829 828 827 825 823 823 821 818
748 749 748 736 736 718 711 719 724 729 710 714 714 720 738 746 746 756 773 784 790 797 803 810 814 818 820 823 825 828 830 831 832 832 832 832 832 831 830 829 828 825 823 822
721 726 728 730 731 726 716 725 723 719 727 723 727 732 742 757 764 771 778 785 792 797 805 810 814 817 820 823 826 829 831 832 833 833 833 833 834 833 832 831 829 827 826 825
723 714 711 716 702 717 713 719 726 727 725 729 734 739 749 760 768 774 780 787 794 800 805 810 813 816 819 822 825 827 830 832 834 834 835 835 836 835 834 833 831 829 828 828
705 713 712 717 704 714 722 727 726 728 730 733 736 743 752 761 769 775 782 789 795 801 804 807 811 815 820 823 826 828 830 832 833 834 835 836 837 837 836 834 834 834 833 831
705 710 705 711 716 721 720 720 722 731 731 735 741 746 755 763 770 776 783 790 796 801 804 807 811 815 820 823 826 829 831 832 834 835 836 837 838 838 838 838 838 838 839 838
708 708 705 695 697 699 706 712 722 729 732 737 741 749 758 763 769 776 784 791 796 801 805 809 813 817 820 823 827 829 831 832 834 836 838 839 839 840 840 840 841 842 842 841
Wind_Speed
13 8 13 11 12 8 6 8 11 10 6 8 8 11 11 5 3 3 7 8 8 9 10 12 13 13 13 15 16 18 19 21 20 18 15 8 11 9 9 11 12 12 12 12
7 14 13 1 5 8 9 11 13 8 2 7 10 14 3 2 4 5 5 6 5 5 7 10 12 13 14 14 15 17 19 19 19 15 13 10 8 5 7 9 11 14 14 13
13 3 3 12 9 11 9 11 10 10 9 13 9 18 9 8 6 5 4 4 4 5 6 8 12 14 16 18 18 17 17 17 17 16 15 12 7 6 8 10 11 14 14 13
9 7 8 12 13 10 11 4 7 7 6 5 3 6 11 12 7 5 2 1 3 3 5 6 9 13 16 17 16 16 16 16 16 16 14 13 11 9 11 11 11 12 14 13
5 10 13 12 10 10 4 3 4 5 8 8 12 6 2 11 14 10 5 2 0 3 5 7 10 11 14 15 15 15 15 16 16 15 15 12 10 12 9 12 11 14 14 14
5 1 6 4 4 10 7 6 4 5 5 7 12 12 5 10 14 10 7 5 5 3 1 6 7 8 10 11 13 12 13 14 16 16 16 15 14 10 10 12 11 15 14 15
13 13 6 9 9 7 11 7 3 5 5 6 2 8 14 9 8 8 9 8 6 3 2 3 5 7 10 13 14 13 13 14 15 16 16 17 17 16 16 18 18 16 17 17
10 7 19 15 18 7 15 12 6 6 7 7 3 8 1 4 8 6 7 9 8 6 3 2 5 7 9 11 12 13 14 14 16 15 16 15 17 16 16 15 15 13 14 15
7 5 8 4 6 12 7 9 13 15 12 9 12 14 7 9 8 10 12 12 10 7 5 1 2 4 6 9 9 12 13 14 15 15 14 16 17 16 15 14 12 12 12 14
4 5 9 7 8 10 10 10 4 5 7 14 11 14 11 12 14 15 15 14 12 9 6 2 2 4 5 7 8 10 11 13 13 13 14 14 15 15 15 14 14 14 13 13
7 7 8 9 12 15 9 11 8 5 9 10 14 10 5 11 15 18 17 15 13 10 7 4 1 2 4 6 7 8 10 11 12 12 13 13 14 15 14 13 14 14 12 14
12 6 13 17 12 13 18 17 18 11 12 7 9 16 2 3 9 13 15 13 12 10 7 4 2 2 4 5 6 8 9 10 12 12 12 13 14 14 13 14 14 14 13 14
8 7 11 16 7 10 14 20 18 19 15 16 9 7 3 4 8 11 13 13 13 10 8 5 4 3 3 4 6 7 9 10 10 11 11 12 13 14 14 15 14 14 16 17
0 8 11 13 5 2 4 10 14 17 10 15 19 19 15 9 10 13 14 16 15 13 10 6 5 5 4 5 6 6 8 9 9 10 11 12 13 13 13 13 14 15 15 18
6 14 15 19 18 17 17 18 18 21 21 18 21 21 23 16 12 16 17 16 15 15 12 8 6 6 6 6 6 6 8 9 9 10 10 12 12 12 12 13 14 14 17 18
5 11 13 21 19 19 21 24 25 24 25 24 23 29 20 18 8 15 18 19 17 15 11 10 9 9 8 6 7 7 8 8 9 10 10 11 12 13 13 14 15 15 15 18
7 7 10 18 16 17 16 25 25 27 23 22 23 26 20 12 13 19 20 19 19 16 14 12 11 10 9 8 8 8 8 8 9 10 10 11 11 12 13 13 14 15 16 17
13 11 9 12 7 15 15 6 11 17 20 23 23 22 16 14 13 14 17 19 17 16 15 13 14 12 10 10 8 8 8 9 9 11 12 12 11 12 12 15 16 16 15 17
18 16 7 9 14 19 21 9 5 9 18 16 18 18 10 5 10 5 11 14 14 15 17 15 15 13 11 9 9 9 10 9 11 11 11 12 12 13 14 15 16 16 16 17
18 19 14 15 17 20 17 15 7 5 12 13 16 14 15 15 9 8 15 16 15 20 20 18 15 13 12 10 10 11 10 11 11 10 10 11 13 14 15 14 15 15 14 16
4 7 17 16 17 13 9 6 9 8 5 1 7 10 16 14 3 19 16 15 21 21 21 19 16 14 13 12 13 12 11 11 9 10 11 12 12 13 13 13 14 14 16 16
11 7 7 13 10 11 10 11 8 0 1 4 6 12 13 10 15 16 16 16 19 21 21 18 17 15 14 13 14 13 12 9 9 9 10 12 11 12 13 13 14 16 16 17
9 11 8 8 3 2 15 0 4 2 2 6 10 11 14 16 16 17 16 17 20 21 20 18 17 16 13 12 12 13 11 10 9 9 10 10 10 11 12 14 14 15 16 16
9 7 6 1 7 7 10 7 5 4 4 8 12 15 15 15 17 17 16 15 17 19 19 18 18 16 15 12 12 11 10 9 8 8 8 8 9 10 12 12 14 16 16 15
5 7 9 9 5 5 11 12 10 8 9 11 12 15 16 18 17 18 16 16 19 18 17 17 16 16 15 14 12 11 10 9 8 8 7 6 7 8 10 13 14 13 15 15
6 7 9 7 2 6 2 10 11 11 12 14 16 15 16 18 18 19 15 20 20 19 18 16 16 17 15 14 13 10 9 8 8 7 6 6 7 7 7 6 8 12 11 13
Wind_Direction
187 207 220 227 228 280 281 269 268 269 262 289 269 278 284 335 313 42 54 44 40 40 37 34 31 27 25 27 27 24 21 19 24 21 14 8 4 9 19 18 10 10 1 353
172 224 245 192 201 225 247 265 268 285 271 277 281 285 351 201 97 63 55 66 50 31 24 23 25 28 29 28 26 24 23 21 23 20 10 4 357 352 11 6 5 4 359 357
234 104 268 198 205 222 230 255 276 280 310 262 286 262 181 159 139 115 88 80 63 43 13 13 17 24 26 27 25 25 24 21 17 17 14 9 15 8 10 8 3 356 355 357
233 213 195 196 219 214 249 232 260 264 276 278 39 284 202 180 185 202 181 21 31 31 48 31 23 20 16 14 13 18 20 20 17 18 15 16 8 3 4 1 359 359 353 357
140 177 201 214 212 197 266 162 237 266 268 297 253 255 216 168 218 221 210 188 319 62 40 31 20 14 12 9 7 6 8 12 15 13 16 11 9 360 355 356 1 9 355 354
265 135 198 207 153 196 136 172 199 241 279 256 249 218 237 185 222 189 205 195 184 161 53 39 24 20 11 9 12 11 7 9 10 11 16 8 5 5 359 5 354 18 0 353
198 207 173 172 159 166 190 196 252 245 212 266 110 243 253 173 174 199 206 195 184 160 81 38 22 12 8 6 4 8 10 12 12 13 14 7 4 4 0 12 10 5 2 347
193 194 202 196 217 199 205 208 233 257 261 276 167 244 173 120 185 197 192 175 173 152 136 56 14 4 5 1 5 5 7 9 12 11 13 7 12 8 7 2 3 3 1 339
194 210 171 196 191 182 169 220 244 262 261 271 258 252 171 156 188 196 188 181 183 166 173 163 12 7 6 359 9 10 10 11 13 11 12 14 12 10 9 5 12 8 12 357
196 221 195 144 160 208 218 151 171 213 239 242 249 254 273 193 211 211 204 197 185 177 181 197 18 14 8 13 12 19 21 19 13 13 20 17 16 19 11 10 14 15 12 8
202 235 163 164 208 188 190 204 225 255 248 266 268 269 111 207 209 207 206 200 185 185 183 187 113 26 30 25 20 22 29 27 20 21 24 26 22 27 18 17 19 24 18 20
208 248 236 214 221 242 222 226 218 229 223 243 278 267 168 272 211 205 200 185 179 186 177 164 133 62 45 37 34 33 35 35 30 27 29 27 28 31 21 24 24 28 27 25
177 212 236 240 225 219 232 236 243 236 254 249 250 248 133 167 192 189 190 174 177 178 181 171 146 104 63 56 46 48 45 43 41 39 37 36 32 30 24 21 24 25 26 27
25 245 246 254 286 32 204 252 241 245 240 253 248 276 263 199 204 182 186 182 177 179 184 171 146 116 97 78 66 58 58 52 46 43 38 38 32 27 28 22 23 27 26 30
243 260 266 266 268 270 253 247 243 240 241 246 269 272 274 279 208 204 188 182 176 183 177 166 154 139 124 102 91 73 61 55 50 48 42 39 34 33 31 31 30 29 33 32
230 261 263 263 262 262 262 257 258 258 259 259 261 267 269 276 220 191 189 181 182 183 171 161 147 152 132 127 102 89 74 64 60 55 49 44 39 38 34 34 36 33 33 33
238 240 240 258 258 257 256 248 253 256 254 251 253 258 275 239 215 198 192 188 184 169 167 163 159 154 142 135 109 95 86 80 73 64 54 48 46 44 40 38 42 39 38 36
239 239 248 262 279 236 250 280 273 254 249 247 251 261 273 278 228 197 196 186 173 166 161 159 158 153 146 138 122 99 94 88 83 72 62 56 52 51 44 41 41 38 36 39
229 242 249 244 251 261 274 236 215 194 248 246 247 248 239 127 116 128 170 168 164 155 148 149 154 153 143 135 127 117 98 97 85 73 64 56 52 50 44 42 39 38 38 37
234 229 234 243 249 258 268 278 171 178 266 228 234 239 162 162 191 181 165 154 138 133 142 143 144 141 132 128 129 119 109 96 86 77 69 60 53 51 49 46 43 41 44 43
191 213 227 234 243 256 263 176 166 197 261 243 205 186 180 195 342 130 143 134 133 140 144 147 142 133 128 129 125 119 112 98 96 86 74 66 60 55 53 53 48 45 45 44
228 232 222 223 237 232 180 158 213 270 48 142 167 174 166 127 128 129 134 137 139 141 147 146 139 134 133 132 128 118 109 111 103 90 76 66 60 58 54 52 48 45 42 40
245 228 247 218 263 115 180 184 141 189 172 169 158 160 148 145 147 144 141 142 141 146 149 149 145 140 136 138 134 123 126 122 113 97 86 73 63 60 57 53 48 43 40 37
228 218 231 246 208 186 209 206 193 181 186 163 152 153 151 148 151 146 141 143 146 151 155 153 147 142 136 132 126 123 126 126 118 104 92 82 70 62 55 54 51 46 38 34
288 167 222 239 234 224 221 213 190 168 144 144 148 148 149 149 149 146 145 147 148 149 152 153 149 143 139 136 127 125 126 123 114 105 99 91 79 71 67 59 51 51 47 43
195 218 219 249 267 242 8 188 167 162 155 154 149 146 155 152 149 149 149 150 149 149 149 145 143 141 138 134 127 123 119 123 123 113 100 86 80 71 64 72 77 60 62 52